Volver al catálogo

STARLINK-3207

ActivoComunicacionesVLEO
NORAD 49756·PAYLOAD·🇺🇸 United States

Lanzado Dec 2, 2021 desde Cape Canaveral Space Force Station

Loading…

Próximos Pases (próximas 24 horas)

TLE

ActualizadoSource: CelesTrak SupGP

Época: Sep 14, 2026, 20:31 UTC

1 49756C 21115AJ  26257.85534722 -.00019646  00000+0 -58050-3 0  2574
2 49756  53.1591 355.8810 0001192  74.6733 259.3452 15.34397871    19

Sigue STARLINK-3207 en tiempo real con AllMySat

Download on the App Store